GW4386 Weather Reports


Display with metric or nautical units.
time (UTC)temp
F
wind
direction
speed
MPH
gust
MPH
rain 1hr
in
rain 24hr
in
rain mn
in
humidity
%
barometer
mb
20260505065058 59 46 4.0 9.0 0.00 0.00 0.00 64 1012.1
20260505064610 58 51 2.0 7.0 0.00 0.00 0.00 66 1012.1
20260505064101 58 40 3.0 6.0 0.00 0.00 0.00 67 1012.2
20260505063604 57 78 2.0 5.0 0.00 0.00 0.00 69 1012.2
20260505063101 57 73 2.0 6.0 0.00 0.00 0.00 68 1012.3
20260505062559 56 54 2.0 6.0 0.00 0.00 0.00 67 1012.4
20260505062059 56 61 1.0 5.0 0.00 0.00 0.00 69 1012.4
20260505061604 56 36 3.0 5.0 0.00 0.00 0.00 72 1012.4
20260505061059 55 28 3.0 6.0 0.00 0.00 0.00 73 1012.4
20260505060558 55 9 1.0 6.0 0.00 0.00 0.00 76 1012.5
20260505060104 55 30 1.0 6.0 0.00 0.00 0.00 78 1012.5
20260505060001 55 18 2.0 6.0 0.00 0.00 0.00 78 1012.5
20260505055600 54 50 3.0 6.0 0.00 0.00 0.00 79 1012.5
20260505055103 54 53 2.0 4.0 0.00 0.00 0.00 81 1012.7
20260505054606 54 78 1.0 4.0 0.00 0.00 0.00 82 1012.7
20260505054059 54 54 1.0 4.0 0.00 0.00 0.00 83 1012.7
20260505053558 53 61 0.0 3.0 0.00 0.00 0.00 83 1012.8
20260505053103 53 52 1.0 3.0 0.00 0.00 0.00 84 1012.9
20260505052559 53 82 0.0 3.0 0.00 0.00 0.00 84 1012.9
20260505052100 53 47 1.0 3.0 0.00 0.00 0.00 85 1012.9
20260505051559 52 84 0.0 2.0 0.00 0.00 0.00 86 1013.0
20260505051058 52 53 0.0 2.0 0.00 0.00 0.00 86 1013.0
20260505050600 52 45 0.0 1.0 0.00 0.00 0.00 87 1012.9
20260505041605 49 59 0.0 1.0 0.00 0.00 0.00 87 1013.1
20260505041059 49 84 0.0 2.0 0.00 0.00 0.00 87 1013.1
20260505040559 48 123 0.0 2.0 0.00 0.00 0.00 87 1013.1
20260505040001 48 53 0.0 0.0 0.00 0.00 0.00 87 1013.2
20260505035601 48 112 0.0 0.0 0.00 0.00 0.00 87 1013.2
20260505035103 48 315 0.0 0.0 0.00 0.00 0.00 87 1013.3
20260505034601 47 31 0.0 0.0 0.00 0.00 0.00 87 1013.2
20260505034100 47 84 0.0 0.0 0.00 0.00 0.00 87 1013.2
20260505033559 47 131 0.0 1.0 0.00 0.00 0.00 87 1013.1
20260505033100 47 117 0.0 1.0 0.00 0.00 0.00 87 1013.1
20260505032601 47 39 0.0 1.0 0.00 0.00 0.00 87 1013.1
20260505032059 47 59 0.0 1.0 0.00 0.00 0.00 87 1013.1
20260505031559 47 134 0.0 1.0 0.00 0.00 0.00 87 1013.1
20260505031059 47 56 0.0 1.0 0.00 0.00 0.00 87 1013.1
20260505030602 47 329 0.0 0.0 0.00 0.00 0.00 87 1013.1
20260505030502 47 329 0.0 0.0 0.00 0.00 0.00 87 1013.1
20260505030121 47 329 0.0 1.0 0.00 0.00 0.00 87 1013.1
20260505030002 47 329 0.0 1.0 0.00 0.00 0.00 87 1013.0
20260505025558 47 319 0.0 1.0 0.00 0.00 0.00 87 1013.0
20260505025102 47 13 0.0 0.0 0.00 0.00 0.00 87 1012.9
20260505024601 47 128 0.0 0.0 0.00 0.00 0.00 87 1013.0
20260505024059 47 61 0.0 2.0 0.00 0.00 0.00 87 1013.1
20260505023600 48 61 0.0 3.0 0.00 0.00 0.00 87 1013.1
20260505023059 47 62 2.0 3.0 0.00 0.00 0.00 87 1013.1
20260505022600 47 61 1.0 3.0 0.00 0.00 0.00 87 1013.1
20260505022100 47 76 0.0 2.0 0.00 0.00 0.00 87 1013.1
20260505021600 47 123 0.0 3.0 0.00 0.00 0.00 87 1013.1
20260505021059 47 48 0.0 3.0 0.00 0.00 0.00 87 1013.1
20260505020559 47 71 0.0 1.0 0.00 0.00 0.00 87 1013.1
20260505015558 48 38 0.0 1.0 0.00 0.00 0.00 87 1013.1
20260505015058 48 313 0.0 1.0 0.00 0.00 0.00 87 1013.1
20260505014610 48 144 0.0 0.0 0.00 0.00 0.00 87 1013.1
20260505014102 48 144 0.0 0.0 0.00 0.00 0.00 87 1013.1
20260505013558 48 78 0.0 0.0 0.00 0.00 0.00 87 1013.1
20260505013059 48 95 0.0 0.0 0.00 0.00 0.00 87 1013.2
20260505012558 48 70 0.0 0.0 0.00 0.00 0.00 87 1013.2
20260505012059 48 322 0.0 0.0 0.00 0.00 0.00 87 1013.3
20260505011600 48 66 0.0 0.0 0.00 0.00 0.00 87 1013.2
20260505011101 48 86 0.0 0.0 0.00 0.00 0.00 87 1013.3
20260505010559 48 103 0.0 1.0 0.00 0.00 0.00 87 1013.2
20260505010103 49 46 0.0 1.0 0.00 0.00 0.00 87 1013.2
20260505010003 49 61 0.0 0.0 0.00 0.00 0.00 87 1013.2
20260505005604 49 27 0.0 0.0 0.00 0.00 0.00 87 1013.3
20260505005059 49 227 0.0 0.0 0.00 0.00 0.00 87 1013.3
20260505004559 49 199 0.0 0.0 0.00 0.00 0.00 87 1013.3
20260505004104 49 119 0.0 0.0 0.00 0.00 0.00 87 1013.2
20260505003559 50 119 0.0 0.0 0.00 0.00 0.00 87 1013.2
20260505003108 50 119 0.0 0.0 0.00 0.00 0.00 87 1013.2
20260505002559 50 76 0.0 1.0 0.00 0.00 0.00 87 1013.2
20260505002100 50 45 0.0 1.0 0.00 0.00 0.00 87 1013.2
20260505001604 50 64 0.0 1.0 0.00 0.00 0.00 87 1013.2
20260505001100 51 300 0.0 1.0 0.00 0.00 0.00 87 1013.3
20260505000558 51 311 0.0 1.0 0.00 0.00 0.00 87 1013.3
20260505000107 51 302 0.0 1.0 0.00 0.00 0.00 87 1013.3
20260504235559 51 199 0.0 0.0 0.00 0.00 0.00 87 1013.3
20260504235059 51 199 0.0 0.0 0.00 0.00 0.00 87 1013.3
20260504234559 51 199 0.0 0.0 0.00 0.00 0.00 86 1013.4
20260504234058 51 172 0.0 0.0 0.00 0.00 0.00 86 1013.3
20260504233601 52 24 0.0 0.0 0.00 0.00 0.00 86 1013.3
20260504233100 52 196 0.0 1.0 0.00 0.00 0.00 86 1013.4
20260504232602 52 211 0.0 1.0 0.00 0.00 0.00 85 1013.3
20260504232059 53 200 0.0 1.0 0.00 0.00 0.00 85 1013.3
20260504231558 53 130 0.0 2.0 0.00 0.00 0.00 85 1013.3
20260504231057 53 42 0.0 1.0 0.00 0.00 0.00 85 1013.3
20260504230602 53 310 0.0 1.0 0.00 0.00 0.00 85 1013.3
20260504230100 53 42 0.0 1.0 0.00 0.00 0.00 85 1013.3
20260504230001 53 36 0.0 1.0 0.00 0.00 0.00 84 1013.3
20260504225601 54 55 0.0 1.0 0.00 0.00 0.00 85 1013.3
20260504225158 54 324 0.0 0.0 0.00 0.00 0.00 84 1013.3
20260504224559 54 207 0.0 0.0 0.00 0.00 0.00 84 1013.3
20260504224100 54 189 0.0 0.0 0.00 0.00 0.00 83 1013.4
20260504223602 54 57 0.0 2.0 0.00 0.00 0.00 83 1013.4
20260504223120 55 78 0.0 2.0 0.00 0.00 0.00 82 1013.4
20260504222604 55 70 0.0 1.0 0.00 0.00 0.00 82 1013.4
20260504222058 56 313 0.0 2.0 0.00 0.00 0.00 81 1013.4
20260504221603 56 319 0.0 2.0 0.00 0.00 0.00 81 1013.4
20260504221059 56 315 0.0 1.0 0.00 0.00 0.00 80 1013.4
20260504220559 57 294 0.0 4.0 0.00 0.00 0.00 79 1013.4
20260504220003 57 331 1.0 4.0 0.00 0.00 0.00 80 1013.4
20260504215502 57 329 0.0 3.0 0.00 0.00 0.00 80 1013.4
20260504215000 57 293 0.0 3.0 0.00 0.00 0.00 79 1013.4
20260504214501 58 329 0.0 3.0 0.00 0.00 0.00 79 1013.4
20260504214105 58 299 0.0 1.0 0.00 0.00 0.00 78 1013.4
20260504213510 58 52 0.0 3.0 0.00 0.00 0.00 78 1013.4
20260504213003 59 36 0.0 3.0 0.00 0.00 0.00 76 1013.5
20260504212502 59 347 0.0 3.0 0.00 0.00 0.00 76 1013.5
20260504212001 60 15 0.0 3.0 0.00 0.00 0.00 75 1013.5
20260504211501 60 312 0.0 3.0 0.00 0.00 0.00 75 1013.4
20260504211001 60 306 0.0 3.0 0.00 0.00 0.00 74 1013.4
20260504210501 61 347 0.0 3.0 0.00 0.00 0.00 74 1013.3
20260504205603 61 321 1.0 4.0 0.00 0.00 0.00 74 1013.3
20260504205059 61 324 0.0 3.0 0.00 0.00 0.00 73 1013.3
20260504204503 61 290 0.0 3.0 0.00 0.00 0.00 72 1013.3
20260504204100 62 308 0.0 3.0 0.00 0.00 0.00 72 1013.3
20260504203600 62 317 0.0 3.0 0.00 0.00 0.00 71 1013.4
20260504203110 62 29 0.0 3.0 0.00 0.00 0.00 71 1013.4
20260504202601 62 318 0.0 3.0 0.00 0.00 0.00 71 1013.4
20260504202100 63 349 0.0 3.0 0.00 0.00 0.00 71 1013.4
20260504201613 63 59 0.0 3.0 0.00 0.00 0.00 71 1013.4
20260504201100 62 13 1.0 3.0 0.00 0.00 0.00 71 1013.3
20260504200600 62 344 0.0 3.0 0.00 0.00 0.00 71 1013.3
20260504200100 62 13 1.0 4.0 0.00 0.00 0.00 72 1013.3
20260504200006 62 55 1.0 4.0 0.00 0.00 0.00 72 1013.3
20260504195502 62 298 0.0 4.0 0.00 0.00 0.00 73 1013.3
20260504195001 62 42 0.0 4.0 0.00 0.00 0.00 73 1013.2
20260504194503 62 13 0.0 3.0 0.00 0.00 0.00 73 1013.2
20260504194005 62 313 0.0 2.0 0.00 0.00 0.00 73 1013.2
20260504193502 62 250 0.0 2.0 0.00 0.00 0.00 71 1013.1
20260504193000 63 313 0.0 3.0 0.00 0.00 0.00 70 1013.1
20260504192505 64 13 0.0 3.0 0.00 0.00 0.00 69 1013.1
20260504192002 64 340 0.0 4.0 0.00 0.00 0.00 68 1013.1
20260504191501 64 316 0.0 4.0 0.00 0.00 0.00 67 1013.0
20260504191001 65 299 0.0 4.0 0.00 0.00 0.00 66 1013.0
20260504190601 65 317 0.0 4.0 0.00 0.00 0.00 66 1013.0
20260504190110 65 309 0.0 5.0 0.00 0.00 0.00 65 1012.9
20260504185601 66 313 2.0 6.0 0.00 0.00 0.00 65 1012.9
20260504185105 66 343 1.0 6.0 0.00 0.00 0.00 65 1012.9
20260504184600 66 336 3.0 9.0 0.00 0.00 0.00 65 1012.8
20260504184501 66 306 2.0 9.0 0.00 0.00 0.00 65 1012.8
20260504184100 66 281 2.0 9.0 0.00 0.00 0.00 65 1012.7
20260504183602 65 313 5.0 9.0 0.00 0.00 0.00 68 1012.6
20260504183101 65 299 0.0 2.0 0.00 0.00 0.00 68 1012.6
20260504183004 65 311 0.0 2.0 0.00 0.00 0.00 68 1012.5
20260504182600 65 298 0.0 1.0 0.00 0.00 0.00 67 1012.5
20260504182501 65 301 0.0 1.0 0.00 0.00 0.00 67 1012.4
20260504182101 66 281 0.0 1.0 0.00 0.00 0.00 66 1012.4
20260504181603 67 259 0.0 1.0 0.00 0.00 0.00 64 1012.4
20260504181501 67 259 0.0 1.0 0.00 0.00 0.00 64 1012.4
20260504181103 67 221 0.0 2.0 0.00 0.00 0.00 63 1012.4
20260504180601 68 248 0.0 2.0 0.00 0.00 0.00 62 1012.4
20260504180100 69 219 0.0 2.0 0.00 0.00 0.00 60 1012.3
20260504175600 70 234 0.0 4.0 0.00 0.00 0.00 59 1012.4
20260504175100 70 225 0.0 4.0 0.00 0.00 0.00 58 1012.3
20260504174604 70 310 0.0 6.0 0.00 0.00 0.00 57 1012.3
20260504174501 70 228 0.0 6.0 0.00 0.00 0.00 57 1012.3
20260504174100 70 211 2.0 4.0 0.00 0.00 0.00 57 1012.4
20260504173603 71 304 0.0 4.0 0.00 0.00 0.00 57 1012.3
20260504173100 71 238 1.0 6.0 0.00 0.00 0.00 56 1012.3
20260504172600 71 252 3.0 7.0 0.00 0.00 0.00 55 1012.3
20260504172100 71 221 2.0 7.0 0.00 0.00 0.00 55 1012.2
20260504172003 71 263 3.0 7.0 0.00 0.00 0.00 55 1012.2
20260504171601 71 257 2.0 8.0 0.00 0.00 0.00 54 1012.2
20260504171101 71 194 3.0 8.0 0.00 0.00 0.00 54 1012.2
20260504170601 72 198 3.0 10.0 0.00 0.00 0.00 54 1012.2
20260504151101 73 188 3.0 14.0 0.00 0.00 0.00 48 1012.1
20260504150600 73 221 3.0 14.0 0.00 0.00 0.00 48 1012.2
20260504150503 73 227 3.0 14.0 0.00 0.00 0.00 48 1012.2
20260504141101 72 215 5.0 11.0 0.00 0.00 0.00 50 1012.4
20260504141001 72 257 5.0 11.0 0.00 0.00 0.00 50 1012.4
20260504140600 73 263 6.0 11.0 0.00 0.00 0.00 50 1012.4
20260504140502 73 303 6.0 11.0 0.00 0.00 0.00 50 1012.4
20260504130600 77 265 10.0 16.0 0.00 0.00 0.00 42 1012.4
20260504130501 77 235 8.0 15.0 0.00 0.00 0.00 43 1012.5
20260504120104 76 186 7.0 15.0 0.00 0.00 0.00 44 1012.4
20260504110559 77 227 10.0 20.0 0.00 0.00 0.00 44 1012.5
20260504100601 75 232 10.0 19.0 0.00 0.00 0.00 44 1012.8
20260504082002 72 163 3.0 7.0 0.00 0.00 0.00 47 1012.7
20260504081603 72 285 2.0 7.0 0.00 0.00 0.00 47 1012.6
20260504081101 71 186 1.0 8.0 0.00 0.00 0.00 48 1012.6
20260504080559 71 306 3.0 8.0 0.00 0.00 0.00 48 1012.6
20260504070115 67 240 2.0 11.0 0.00 0.00 0.00 51 1012.7